Regional Weather Roundup
Issued by NWS Green Bay, WI

Home | Current Version | Previous Version | Text Only | Print | Product List | Glossary On
Versions: 1 2 3 4 5 6 7 8 9 10 11 12 13 14 15 16 17 18 19 20 21 22 23 24 25 26 27 28 29 30 31 32 33 34 35 36 37 38 39 40 41 42 43 44 45 46 47 48 49 50
000
ASUS43 KGRB 031410
RWRGRB

NORTH-CENTRAL AND NORTHEAST WISCONSIN REGIONAL WEATHER ROUNDUP
NATIONAL WEATHER SERVICE GREEN BAY WI
900 AM CDT SUN MAY 03 2015

WIZ005-009-010>012-018-019-031500-
NORTH CENTRAL WISCONSIN

CITY           SKY/WX    TMP DP  RH WIND       PRES   REMARKS
IRONWOOD       PTSUNNY   64  52  63 S8        29.72F
MANITOWISH WTR MOSUNNY   63  51  66 S12       29.79F
ARBOR VITAE    MOSUNNY   63  51  66 SW9       29.81F
EAGLE RIVER    MOSUNNY   62  47  58 SW10G17   29.83S
LAND O LAKES   MOSUNNY   65  50  58 S8        29.82F
RHINELANDER    MOSUNNY   62  49  62 SW13G21   29.86S
PHILLIPS       PTSUNNY   61  50  67 S9        29.81F
ANTIGO         CLOUDY    61  49  64 SW14      29.87R
TOMAHAWK       PTSUNNY   61  49  65 CALM      29.85F
MERRILL        CLOUDY    62  50  66 SW7       29.86S
$$

WIZ013-073-031500-
NORTHEAST WISCONSIN

CITY           SKY/WX    TMP DP  RH WIND       PRES   REMARKS
IRON MOUNTAIN  SUNNY     68  48  48 SW14G25   29.82F
MARINETTE      SUNNY     66  48  52 SW14      29.86R
OCONTO         SUNNY     67  50  52 SW10G17   29.86S
$$

WIZ017-030-035>037-045-031500-
CENTRAL WISCONSIN

CITY           SKY/WX    TMP DP  RH WIND       PRES   REMARKS
MEDFORD        CLOUDY    60  50  69 S8        29.86S
WAUSAU         CLOUDY    61  49  64 SW10      29.85R
MOSINEE        CLOUDY    61  52  72 SW9       29.87S
MARSHFIELD     CLOUDY    64  49  57 SW8       29.86S
WISC RAPIDS    CLOUDY    65  48  54 SW10      29.87S
STEVENS POINT  CLOUDY    62  49  61 SW6       29.87S
WAUPACA        PTSUNNY   67  51  56 S9        29.88S
SHAWANO        MOSUNNY   67  50  53 SW8       29.87S
CLINTONVILLE   PTSUNNY   64  48  55 SW12      29.87S
$$

WIZ038-039-048-051-031500-
FOX VALLEY

CITY           SKY/WX    TMP DP  RH WIND       PRES   REMARKS
NWS GREEN BAY  PTSUNNY   67  50  54 S13       29.89S
APPLETON       PTSUNNY   64  46  52 SW15      29.89S
OSHKOSH        PTSUNNY   66  48  52 S18       29.89S
FOND DU LAC    PTSUNNY   68  46  45 S16G25    29.90S
$$

WIZ022-050-052-031500-
EAST CENTRAL WISCONSIN

CITY           SKY/WX    TMP DP  RH WIND       PRES   REMARKS
STURGEON BAY   SUNNY     68  48  49 SW14      29.90S
MANITOWOC      PTSUNNY   67  52  58 S8        29.91F
SHEBOYGAN      SUNNY     68  49  50 S10       29.92S
$$

LMZ563-521-522-541>543-031500-
LAKESHORE

STATION/POSITION TIME  TEMP    WIND        PRES    VSBY  WAVE
                       AIR SEA DIR/SP/G                  HT/PER
                 (UTC) (F)     (DEG/KT/KT) (MB)    (MI)  (FT/S)
SHEBOYGAN LKSHOR 1400   57     180/ 17/ 18 1013.5S
KEWAUNEE LKSHORE 1400   49     180/ 11/ 13 1011.9S
NORTHPORT PIER   1400   51     160/  5/  8 1011.5S
SISTER BAY LKSHO 1300   65     220/ 12/ 15   N/A
CHAMBERS ISLAND  1400   60     190/  8/ 15 1011.9R
MENOMINEE LKSHOR 1400   64     200/  9/ 12 1011.9R
$$



USA.gov is the U.S. government's official web portal to all federal, state and local government web resources and services.